Location: Austin
(30.3000°N, 97.7500°W)
Time: 12:22:34
(UTC-05:00)

Cosmos 2233 Rocket - Pass Details

Date: 05 September 2024
Orbit: 952 x 990 km, 82.9° (Epoch: 10 September)

Event Time Altitude Azimuth Distance (km) Brightness Sun altitude
Rises 20:35:18 0° 173° (S) 3,617 6.8 -10.8°
Reaches altitude 10° 20:37:49 10° 169° (S) 2,672 6.1 -11.4°
Maximum altitude 20:43:47 57° 92° (E) 1,110 4.0 -12.6°
Drops below altitude 10° 20:49:45 10° 15° (NNE) 2,683 6.3 -13.9°
Sets 20:52:17 0° 12° (NNE) 3,633 7.1 -14.4°
